Starlink 33813

operational
NORAD ID: 63585 Int'l Des: 2025-076 Owner: SPXS Country: US Constellation: starlink
LEOCIRCULAR

关于 Starlink 33813

正在加载描述...

实时位置

正在加载3D地球...

即将过境

高度历史

Altitude vs Time

uPlot chart will show altitude changes over time

两行轨道根数

1 63585U 25076S 25304.80175353 .00031544 00000-0 11513-2 0 9993
2 63585 42.9993 329.1593 0001691 54.9683 305.1327 15.27568922 32125
Epoch: Oct 31, 2025 • Age: 15 hours

当前状态

高度 484.7 km
速度 7.63 km/s
星下点 39.94°N, 106.14°W
发射日期 Apr 14, 2025
运行时间 0.5 years
类型 internet

技术详情

分类 Payload
质量 575.00 kg
干质量 530.00 kg
总质量 575.00 kg
长度 0.30 m
直径 4.10 m
跨度 29.00 m
形状 Box + pan
制造商 SPXS
平台类型 Starlink V2MO
阶段状态 In Orbit
所有者/国家 SPXS/US

大型星座

Loading constellations...